Regional Weather Roundup
Issued by NWS

Home | Current Version | Previous Version | Text Only | Print | Product List | Glossary On
Versions: 1 2 3 4 5 6 7 8 9 10 11 12 13 14 15 16 17 18 19 20 21 22 23 24 25 26 27
000
ASUS44 KLIX 161713
RWRLA
LOUISIANA WEATHER ROUNDUP
NATIONAL WEATHER SERVICE NEW ORLEANS LA
1100 AM CST TUE JAN 16 2018

NOTE: "FAIR" INDICATES FEW OR NO CLOUDS BELOW 12,000 FEET WITH NO
      SIGNIFICANT WEATHER AND/OR OBSTRUCTIONS TO VISIBILITY.
      SKY/WX - SKY CONDITION AND SIGNIFICANT WEATHER.
      TMP - AIR TEMPERATURE.    DP   - DEWPOINT TEMPERATURE.
      RH  - RELATIVE HUMIDITY.  PRES - PRESSURE.
      HX  - HEAT INDEX.         WCI  - WIND CHILL INDEX.

*  THESE STATIONS ARE NOT NWS OR FAA STATIONS AND ARE NOT UNDER
   NWS QUALITY CONTROL.

LAZ040-048-061>063-065-066-069-161800-
SOUTHEAST LOUISIANA

CITY           SKY/WX    TMP DP  RH WIND       PRES   REMARKS
N.O. INTL ARPT CLOUDY    46  38  73 N16G22    30.48F
N.O. LAKEFRONT CLOUDY    47  38  71 N16       30.49R
N.O. DOWNTOWN* CLOUDY    45  36  70 N12G20    30.48S
RESERVE*       CLOUDY    45  36  69 N10       30.49F
SLIDELL        CLOUDY    46  35  65 N20       30.47F
BATON ROUGE    CLOUDY    34  28  79 N8        30.56R WCI  27
BOOTHVILLE     FAIR      52  47  83 N15G26    30.41S
BELLE CHASSE   CLOUDY    46  41  82 N10G17    30.45S
BOGALUSA*      CLOUDY    41  33  73 NE15      30.51F
GALLIANO*      PTSUNNY   51  42  71 N22       30.44S
NEW ROADS*     MIX PCPN  31  28  87 N13G22    30.59F WCI  21
GONZALES*      CLOUDY    40  32  73 N15G23    30.52R WCI  32
HAMMOND*       CLOUDY    37  32  81 N16       30.52S WCI  28
HOUMA*         PTSUNNY   50  43  76 N16       30.46S
PORT FOURCHON* PTSUNNY   52  46  82 N20G26    30.42S

$$

LAZ041-044-053-054-161800-
SOUTHWEST LOUISIANA

CITY           SKY/WX    TMP DP  RH WIND       PRES   REMARKS
LAKE CHARLES   LGT RAIN  33  31  92 N20G28    30.59R WCI  21
LAFAYETTE      CLOUDY    32  29  88 N17       30.57S WCI  21
PATTERSON      CLOUDY    43  35  73 N20       30.49S
SALT POINT       N/A     44  35  70 N12G22    30.47R
NEW IBERIA     FLURRIES  35  27  72 N23G30    30.55R WCI  23
CHENAULT AIRPK LGT RAIN  32  30  93 N18G25    30.60R FOG     WCI  20

$$

LAZ027-028-161800-
CENTRAL LOUISIANA

CITY           SKY/WX    TMP DP  RH WIND       PRES   REMARKS
FORT POLK      FLURRIES  28  25  91 N9        30.63S WCI  19
ALEXANDRIA INT LGT SNOW  28  23  81 N13G21    30.64S WCI  17
ALEXANDRIA     LGT SNOW  27  22  81 N9G17     30.64F WCI  18

$$

LAZ001-002-161800-
NORTHWEST LOUISIANA

CITY           SKY/WX    TMP DP  RH WIND       PRES   REMARKS
SHREVEPORT     CLOUDY    23  14  68 N13G21    30.72F WCI  11
BARKSDALE AFB  PTSUNNY   23  11  60 N13       30.73S WCI  11
DTN SHREVEPORT CLOUDY   N/A N/A N/A N14       30.74F

$$

LAZ014-016-161800-
NORTHEAST LOUISIANA

CITY           SKY/WX    TMP DP  RH WIND       PRES   REMARKS
MONROE         MIX PCPN  24  18  77 N13       30.71F WCI  12
TALLULAH       LGT SNOW  22  19  89 N16       30.69F FOG     WCI   8

$$





USA.gov is the U.S. government's official web portal to all federal, state and local government web resources and services.